Reflectivity
0 -10 9 -8 -5 -17 16 15 3 1 -20 -17 6 18 22 22 20 22 -12 -7 -14 -20 -20 -20 -20 -20 -20 -20 -20 -20 -20 -20 -20 -20 -20 -20 -20 -20 -20 -20 -20 -20 -20 -20 -20 -20 -20 -20 -20 -20 -20 -20 -20 -20
10 -17 -20 -20 -7 17 12 17 19 18 10 -20 -3 18 19 15 24 25 12 5 5 9 1 -20 -20 -20 -20 -20 -20 -20 -20 -20 -20 -20 -20 -20 -20 -20 -20 -20 -20 -20 -20 -20 -20 -20 -20 -20 -20 -20 -20 -20 -20 -20
0 11 1 -17 -19 -10 1 8 10 11 18 16 7 -13 18 19 18 24 24 20 18 18 8 9 -4 -20 -20 -20 -20 -20 -20 -20 -20 -20 -20 -20 -20 -20 -20 -20 -19 -19 -20 -20 -20 -20 -20 -20 -20 -20 -20 -20 -20 -20
12 -20 -20 -20 -15 -20 -7 1 -6 -2 14 2 2 4 9 24 21 23 19 23 27 27 22 -1 -16 -7 -19 -20 -20 -20 -20 -20 -20 -20 -20 -20 -20 -20 -20 -20 -9 1 -20 -20 -20 -20 -20 -20 -20 -20 -20 -20 -20 -20
-20 -16 -17 -20 -20 -20 -20 -7 -16 -19 -11 17 14 -16 -0 16 28 25 13 15 19 29 23 0 -20 -20 -20 -20 -18 -20 -20 -20 -20 -20 -20 -20 -20 -20 -20 -20 7 10 -7 -20 -20 -20 -20 -20 -20 -20 -20 -20 -20 -20
-17 6 3 -20 -20 -20 -20 -20 -20 -20 -2 30 13 4 -2 14 28 37 34 21 15 17 27 20 6 -20 -20 -19 7 14 -0 -20 -20 -20 -20 -20 -20 -20 -20 -20 10 18 -5 -20 -20 -20 -20 -20 -20 -20 -20 -20 -20 -20
-20 -11 6 9 -20 -20 -20 -20 -20 -20 -1 -15 3 28 11 22 29 37 34 14 -18 -1 32 24 13 -8 -20 -20 -20 -20 -20 -6 -17 -3 -20 -20 -20 -20 -20 -11 19 7 -12 -20 -20 -20 -20 -20 -20 -20 -20 -20 -20 -20
-20 -20 -8 -20 -13 -20 -20 -20 -20 -20 -20 -14 11 27 27 23 27 39 35 35 30 20 29 26 18 -19 -20 -20 -20 -20 -20 -16 13 -8 -20 -20 -20 -20 -19 0 17 25 -2 -20 -20 -20 -20 -20 -20 -20 -20 -20 -20 -20
-20 -20 -20 -10 -12 -20 -20 -20 -18 -20 -20 -20 -19 19 28 21 11 27 23 32 36 32 31 25 0 -20 -20 -20 -20 -16 -20 -2 16 11 -5 -5 -20 -20 -14 -1 -13 -20 -20 -20 -20 -20 -20 -20 -20 -20 -20 -20 -20 -20
-20 -20 -20 -18 -19 6 -20 -20 -20 -20 -20 -20 1 -19 16 34 31 3 41 42 42 40 42 29 -5 -20 -20 -20 -20 3 9 9 12 -4 -8 -15 -20 -20 -9 13 -8 -20 -20 -20 -20 -20 -20 -20 -20 -20 -20 -20 -20 -20
-20 -13 5 -20 -13 -20 -20 -20 -20 -20 -20 -12 -20 4 -20 31 34 23 23 29 32 26 29 1 -18 -20 -19 -20 -15 -8 10 16 13 -12 -20 -20 -20 -20 5 13 -8 -20 -20 -20 -20 -20 -20 -20 -20 -20 -20 -20 -20 -20
9 8 -20 -20 -18 22 21 -7 -20 -2 -10 4 7 -8 14 16 21 20 22 25 25 14 0 -1 -15 -20 -20 -20 -19 -17 -7 8 4 -19 -20 -20 -20 -18 6 -2 -18 -20 -20 -20 -20 -20 -20 -20 -20 -20 -20 -20 -20 -20
10 -12 -20 -7 -8 -5 -18 23 -20 -4 5 3 12 -18 6 24 21 4 14 11 6 -2 -0 -4 -5 2 5 -8 -18 -5 10 10 -4 -15 -20 -20 -20 -7 9 -3 -20 -20 -20 -20 -20 -20 -20 -20 -20 -20 -20 -20 -20 -20
-4 -8 -12 -4 -10 13 15 14 21 11 20 -20 16 15 11 2 -11 -20 -20 -20 -20 -20 -20 -19 6 14 12 12 13 16 17 11 5 -20 -20 -20 -12 -6 6 -3 -20 -20 -20 -20 -20 -20 -20 -20 -20 -20 -20 -20 -20 -20
-4 4 -5 -1 -20 -20 17 9 9 26 5 -16 -4 16 -1 -20 -20 -20 -20 -20 -20 -20 -20 -20 -20 -7 11 17 18 17 21 16 -10 -20 -19 -9 4 12 -10 -13 -20 -20 -20 -20 -20 -20 -20 -20 -20 -20 -20 -20 -20 -20
1 13 0 -20 -20 -20 23 20 23 28 22 11 3 -9 -20 -20 -12 -20 -20 -20 -7 1 18 22 20 20 18 5 11 14 3 -13 -20 -20 -16 -11 13 13 -7 -20 -20 -20 -20 -20 -20 -20 -20 -20 -20 -20 -20 -20 -20 -20
15 6 -20 -20 -20 -20 26 25 34 31 18 -5 -20 -20 -9 -20 -20 -20 -20 -20 -4 -11 -4 -17 7 11 -11 12 14 -14 -20 -20 -20 -20 -20 -20 -5 3 -6 -20 -20 -20 -12 -20 -20 -20 -20 -20 -20 -20 -20 -20 -20 -20
13 -20 -18 -20 2 25 17 32 26 20 14 -14 -20 -20 -20 -20 -20 -20 -20 -15 24 34 32 26 19 17 16 13 -13 -20 -19 -20 -20 -20 -4 3 -6 3 6 -19 -20 -20 -20 -20 -12 -19 -20 -20 -20 -20 -20 -20 -20 -20
-20 -20 -20 -20 24 30 26 18 0 11 -13 -20 -20 -20 -20 -20 -20 -20 -20 -20 -15 2 -15 23 23 25 16 7 -20 -19 2 -19 -20 -19 15 16 -18 -7 -7 10 -3 -20 -20 -20 -20 -20 -20 -20 -20 -20 -20 -20 -20 -20
4 17 17 -14 23 34 24 12 9 -15 -20 -20 -20 -20 -20 -20 -20 -20 -20 -20 -20 -20 16 19 27 19 -20 -20 -20 -20 -3 -20 -20 -20 -20 -19 -4 15 18 9 17 19 -2 -20 -16 -20 -20 -20 -20 -20 -20 -20 -20 -20
18 -20 -20 27 26 34 28 14 11 -20 -20 -20 -20 -20 -16 -20 -20 -20 -20 -15 15 8 7 22 14 -20 -20 -20 -20 -20 -20 -20 -20 -3 15 2 10 4 25 25 16 4 -5 -8 -20 -20 -20 -20 -20 -20 -20 -20 -20 -20
-20 -15 -11 21 25 24 15 6 -14 -7 -20 -20 -17 -16 -20 -2 -12 -20 -19 12 7 25 12 -14 -20 -20 -20 -20 -20 -20 -20 -13 10 23 9 -7 14 12 21 11 19 10 -10 -18 -9 -20 -20 -20 -20 -20 -20 -20 -20 -20
9 9 20 10 17 9 -3 -20 -8 -20 9 -20 -20 1 -10 -20 -20 -8 14 -7 -17 -19 -20 -20 -20 -20 -20 -20 -20 -20 -20 -18 -2 4 -20 -0 14 -8 16 -6 23 16 -18 -20 -20 -20 -20 -20 -20 -20 -20 -20 -20 -20
26 23 22 22 17 -5 -20 -20 -20 -20 -6 1 3 1 -4 -8 -20 8 10 -20 -20 -20 -20 -16 3 6 -1 -3 -15 -20 -9 6 14 -9 -20 5 16 8 -8 -19 14 15 -9 -20 -11 -2 -20 -20 -20 -20 -20 -20 -20 -20
24 22 19 14 -7 -19 -20 -20 -20 4 14 15 15 15 -19 1 20 13 -7 -20 -20 -20 -20 -20 -20 -20 -20 -20 -20 -20 -20 12 26 14 14 15 25 17 13 0 -8 -20 -5 2 2 -19 -20 -20 -20 -20 -20 -20 -20 -20
14 -7 6 -20 -20 -20 -20 -20 -20 -20 -20 -20 -6 -20 -17 14 16 -1 8 12 12 2 -8 -9 3 5 -14 -20 -20 -20 -19 10 18 25 24 4 18 25 24 18 -6 -14 8 -3 -20 -20 -20 -20 -20 -20 -20 -20 -11 -12
5 -20 -20 -20 -20 -20 -15 -10 -17 3 -13 -20 -20 -20 4 9 -6 8 2 2 8 10 9 3 0 -10 -20 -20 -17 -20 -19 -19 -13 -9 1 7 7 8 -0 0 11 4 -17 -20 -20 -20 -20 -20 -20 -20 -20 -20 -20 -20
-5 -7 -20 -20 -8 -4 -3 -4 5 10 6 -6 -15 -12 -10 -17 -2 6 -4 -20 5 4 -19 -18 -20 -20 -20 -20 -20 -20 -20 -20 -20 -20 -17 -8 -19 -20 -20 -20 -20 -20 -20 -20 -20 -20 -20 -20 -20 -20 -20 -20 -20 -20
-20 -20 -20 -20 -3 21 18 5 -13 -19 1 8 9 2 -0 -8 5 13 8 -12 8 -17 1 4 5 1 0 -16 -20 -20 -20 -20 -20 -20 -15 -8 -16 -20 -20 -20 -20 -20 -20 -20 -20 -20 -20 -20 -20 -20 -20 -20 -20 -20
-20 -20 -20 -20 -20 -15 6 1 -2 -6 9 20 15 6 -7 -19 3 9 5 15 7 -19 -8 -5 -10 -20 -20 -20 -20 -20 -16 -14 -15 -18 -20 -20 -20 -20 -20 -20 -20 -20 -20 -20 -20 -19 4 -14 -8 -20 -20 -20 -20 -14
-20 -20 -20 -20 -17 3 5 -5 3 16 17 19 15 6 -5 7 -3 -20 -20 -16 -20 -20 -20 -20 -20 -20 -20 -20 -20 -20 -20 -20 -20 -20 -20 -20 -20 -20 -20 -20 -20 -20 -20 -20 -19 -18 -16 -19 -20 -20 -20 -20 -20 -20
-20 -20 -20 4 -5 -20 -6 15 16 17 17 17 15 9 2 -3 -20 -20 -13 -17 -18 -20 -20 -20 -20 -20 -20 -20 -20 -20 -20 -20 -20 -20 -20 -20 -20 -20 -20 -20 -20 -20 -17 -17 -20 -20 -20 -20 -20 -20 -20 -20 -20 -20
-20 -14 -11 -1 10 8 10 12 8 9 -4 -20 -20 -20 -20 -20 -20 -20 -20 -20 -20 -15 -18 -20 -20 -20 -20 -20 -20 -20 -20 -20 -20 -3 10 4 -16 -19 -20 -18 -13 4 -3 -20 -20 -20 -20 -20 -20 -20 -20 -20 -20 -20
Wind_Speed
13 13 15 16 17 17 15 15 16 15 14 16 18 18 17 16 17 6 2 7 3 3 5 8 7 6 4 4 5 6 4 3 4 6 5 4 5 4 3 3 5 7 8 6 4 4 9 12 9 7 1 3 6 9
12 13 13 15 16 17 17 17 18 17 16 16 18 19 20 19 20 12 3 2 3 2 4 3 6 5 5 4 5 6 3 4 4 3 3 1 4 3 4 5 3 7 8 3 10 6 3 22 5 15 2 4 7 10
13 15 14 14 16 16 18 20 20 20 18 18 18 20 22 23 24 20 4 4 2 1 6 3 10 9 6 8 3 4 3 3 4 1 1 2 8 4 6 9 5 7 6 6 3 7 16 14 19 13 9 12 7 10
13 13 15 15 15 17 17 16 19 21 21 19 18 20 22 23 26 25 6 6 4 3 4 5 0 5 1 9 9 2 5 5 5 3 3 4 4 5 4 6 7 2 9 8 10 21 14 19 17 17 15 14 13 12
17 15 15 14 14 14 15 16 12 16 21 21 19 18 20 22 26 18 8 7 8 7 3 4 3 2 0 5 12 10 8 6 3 3 4 5 3 4 4 3 11 11 15 11 12 18 12 16 8 6 12 14 14 13
17 17 16 14 14 15 15 15 15 15 14 16 17 17 17 20 22 5 3 6 11 4 1 3 0 2 2 2 6 9 8 5 3 3 3 4 2 4 6 8 5 14 20 22 24 23 17 18 16 10 13 12 12 12
18 17 18 16 15 15 14 15 13 13 15 11 13 17 17 18 10 7 7 3 23 10 4 3 5 2 4 4 2 2 2 2 3 3 5 3 4 6 6 16 5 10 15 17 20 20 18 20 14 10 10 12 7 9
19 18 18 17 16 15 14 13 12 13 15 15 12 13 16 16 12 8 2 14 17 5 5 4 3 4 7 4 4 2 4 2 4 3 1 3 2 5 14 21 18 20 21 24 22 18 20 18 15 16 11 9 10 12
19 19 18 18 16 15 15 14 13 13 14 15 14 14 5 5 5 4 15 26 1 5 6 5 8 7 6 4 3 3 3 4 3 5 5 6 6 17 18 15 16 18 16 15 9 14 16 17 18 17 12 13 14 14
19 19 19 18 17 16 14 13 13 15 15 14 5 1 3 3 18 20 7 4 2 3 3 4 3 5 6 6 5 5 4 4 5 7 5 8 15 20 15 19 18 24 16 11 11 15 14 12 13 16 15 14 14 14
20 19 19 18 18 17 15 12 12 12 9 2 3 3 2 3 3 2 4 6 5 5 6 5 11 7 5 5 5 5 5 5 5 5 8 7 11 6 18 24 25 25 21 18 16 19 15 15 12 12 12 13 12 14
21 20 19 18 18 19 15 14 11 4 2 1 2 2 2 1 3 5 5 4 7 8 8 6 7 7 6 4 4 6 6 6 8 8 5 9 6 14 12 14 14 12 12 13 13 15 15 13 12 12 11 11 12 12
20 20 20 19 19 19 17 16 13 9 4 1 1 2 4 5 8 9 9 6 6 5 7 7 8 7 4 4 4 6 9 8 7 6 9 10 6 11 10 5 6 6 7 5 8 8 7 8 8 10 11 8 8 8
21 20 19 19 19 19 18 17 15 7 4 4 6 7 7 7 8 7 8 6 4 4 10 11 4 5 4 7 5 7 6 5 7 7 13 5 11 15 5 6 6 7 8 8 8 6 6 7 6 6 8 7 6 8
21 20 18 18 18 19 18 18 16 6 4 5 5 8 10 6 4 3 2 1 3 6 10 8 2 3 5 6 6 5 7 7 10 10 5 6 12 7 6 5 8 7 7 7 5 5 5 5 5 5 5 5 5 5
21 19 15 19 20 21 20 16 8 5 3 5 8 6 3 4 6 3 1 6 3 9 7 2 5 6 8 5 10 9 8 10 7 7 9 4 5 5 5 6 7 5 6 4 4 3 4 4 4 3 1 3 4 5
20 10 14 18 19 20 19 6 5 7 7 7 7 5 11 10 8 3 5 4 5 9 7 6 8 12 3 6 8 8 10 13 10 5 6 6 7 5 6 6 6 5 6 7 5 5 3 3 3 3 4 3 4 4
11 6 14 19 16 10 2 5 4 6 9 7 5 8 5 6 10 12 12 10 11 8 9 7 3 9 7 7 5 8 10 6 2 4 4 5 5 5 7 8 6 5 5 5 5 5 5 5 5 4 3 3 4 3
12 8 17 18 9 4 4 5 5 5 8 4 4 7 10 9 11 13 13 10 13 8 7 5 12 6 6 5 9 11 3 4 6 6 5 8 8 8 5 2 4 6 6 5 7 5 4 6 3 4 4 4 4 4
21 20 19 19 13 4 6 5 3 5 5 6 5 11 14 13 13 14 14 12 12 13 12 8 9 10 9 15 15 10 4 7 6 4 5 4 4 7 8 7 6 5 4 3 1 3 2 3 3 3 4 5 5 6
14 10 15 16 4 6 5 4 5 4 3 5 5 5 6 5 10 13 14 10 10 10 11 12 15 17 22 15 5 4 7 7 8 9 5 7 5 7 3 4 3 3 4 5 6 5 7 5 2 5 5 5 5 5
5 13 2 5 5 5 6 5 4 3 4 5 3 3 5 9 12 13 9 12 15 14 14 19 19 17 14 15 11 7 7 7 4 4 4 7 4 5 6 8 6 8 7 7 6 6 6 3 4 4 4 3 5 6
7 4 2 5 7 7 6 5 6 5 6 4 3 6 9 9 8 3 9 11 13 13 15 17 18 11 14 9 7 8 10 12 9 10 7 6 4 3 3 6 9 9 7 7 5 5 4 6 7 5 5 6 6 6
10 5 7 7 9 5 3 6 5 4 5 11 10 18 10 7 5 8 12 15 13 8 11 18 13 13 5 6 13 13 10 9 8 2 2 6 5 5 8 8 8 8 7 3 4 4 5 6 9 7 7 8 8 8
7 8 7 7 5 6 7 4 4 5 8 6 8 8 5 4 5 6 6 6 11 11 12 11 12 13 15 14 12 11 9 9 8 8 6 7 8 3 2 4 6 8 6 6 5 6 6 7 8 8 9 9 11 11
10 8 9 9 5 7 7 6 9 12 9 6 8 4 3 4 5 10 7 10 10 7 11 13 14 13 14 15 14 12 13 8 7 10 11 11 12 11 12 11 10 7 7 8 7 9 9 9 10 12 10 13 19 14
7 8 5 2 3 3 3 3 2 4 7 9 5 6 5 7 10 6 4 3 3 2 3 6 11 12 13 12 10 4 5 10 12 10 7 7 8 9 9 10 11 5 7 10 10 11 13 12 11 11 10 10 12 13
5 6 13 8 4 4 12 6 6 8 6 5 4 9 8 9 7 3 2 2 3 3 4 3 4 3 3 3 3 6 4 5 6 5 5 4 1 1 3 2 3 13 6 8 9 9 11 11 12 12 13 12 11 10
5 3 3 4 3 7 8 8 8 6 3 5 5 7 6 4 2 2 1 2 0 2 3 2 1 2 4 4 4 4 6 8 10 8 9 6 4 4 4 3 4 5 5 7 15 13 14 12 12 12 13 11 11 11
6 6 5 6 8 11 8 5 2 2 1 3 3 3 3 3 2 1 2 1 1 3 2 2 3 3 3 4 4 2 3 3 1 3 5 7 6 4 6 7 8 8 7 8 9 10 19 15 17 13 13 12 11 12
6 6 4 7 11 6 1 0 1 2 2 3 2 3 3 4 5 3 3 2 2 3 3 2 1 1 3 3 3 4 3 3 4 4 2 2 5 7 7 7 7 8 9 11 11 12 14 12 12 15 15 15 17 15
5 9 8 8 3 1 2 3 3 3 2 3 3 2 2 2 5 3 2 4 3 4 7 4 4 3 3 0 1 1 4 2 6 5 7 5 5 6 8 7 8 9 11 12 13 13 15 16 13 15 15 17 16 15
2 2 1 3 2 3 3 3 1 2 2 3 3 1 2 2 7 2 0 2 2 2 3 3 2 2 2 4 2 1 1 1 3 8 11 12 15 13 8 7 8 11 15 13 13 14 16 19 16 17 17 17 16 15
Wind_Direction
275 277 275 269 267 257 251 256 267 268 266 258 237 222 214 204 193 176 197 188 199 235 263 202 192 162 152 206 195 128 150 187 163 207 222 212 225 187 233 247 199 192 179 202 186 237 272 147 121 208 137 164 187 199
278 279 283 284 282 272 266 261 260 253 252 256 250 231 213 205 198 174 255 170 148 229 289 246 245 245 225 205 166 184 336 152 189 188 219 244 212 194 228 254 184 242 219 215 219 227 67 187 225 220 234 188 196 212
272 282 285 290 289 283 279 274 266 258 244 243 248 240 222 207 198 185 156 143 140 288 285 225 239 233 207 217 241 215 205 179 182 357 189 312 249 168 208 229 229 226 188 239 258 222 235 217 244 248 240 236 223 219
272 278 288 291 291 293 289 285 278 266 252 234 237 245 238 218 199 188 180 171 134 138 267 285 353 238 178 191 194 182 126 109 102 168 202 235 247 201 244 288 238 232 163 218 255 273 264 257 237 248 246 241 246 239
277 277 282 285 289 294 302 296 304 296 266 249 239 238 243 228 208 193 193 185 182 166 213 261 279 207 13 192 201 183 160 150 167 177 196 221 227 232 205 286 236 193 223 225 247 259 252 281 276 227 235 237 239 240
279 276 275 279 287 291 294 298 298 298 310 265 244 242 242 239 211 149 223 185 193 172 140 264 109 174 67 148 186 192 183 172 198 204 213 225 238 229 252 248 207 205 220 231 249 263 270 269 291 265 263 256 240 227
278 277 276 276 279 286 295 295 300 309 305 302 297 254 241 240 205 182 195 201 175 145 151 249 248 95 120 116 111 147 158 170 200 216 227 237 206 201 248 252 157 212 223 229 235 254 265 256 260 278 241 262 252 245
274 274 273 274 275 282 287 289 295 302 307 301 300 300 269 242 233 216 142 147 149 120 186 213 228 195 182 148 146 187 152 159 203 239 194 218 185 233 252 243 239 257 253 251 241 230 241 265 277 265 254 246 238 244
269 271 271 271 270 275 283 289 291 297 298 301 303 289 283 227 168 178 154 162 47 152 192 193 188 196 169 137 128 160 182 179 153 230 219 185 203 226 241 245 231 238 223 241 241 245 242 236 248 258 256 234 233 243
263 268 267 267 263 263 268 277 288 292 294 298 283 159 297 280 120 107 137 173 233 230 202 232 142 160 177 159 168 148 183 212 211 217 150 221 251 251 258 254 252 252 241 241 237 250 239 240 234 247 243 237 233 239
257 261 263 264 261 257 258 265 275 294 283 201 210 214 6 175 20 56 167 186 179 210 204 194 186 145 206 159 159 211 178 182 225 193 201 239 256 220 236 245 245 254 254 242 227 248 255 252 255 250 247 239 233 238
255 257 259 261 258 256 251 249 256 258 252 235 134 82 102 209 216 196 194 200 196 215 190 180 172 155 160 173 153 180 200 177 236 138 208 253 238 238 244 249 249 239 233 234 221 233 247 249 245 244 247 248 239 235
251 255 257 259 255 252 244 241 244 244 148 102 213 186 187 192 220 190 194 207 201 190 186 175 155 133 141 205 170 178 198 211 123 191 232 241 259 265 238 219 257 225 222 216 218 208 223 236 227 231 245 239 243 249
248 251 253 254 254 254 247 239 237 236 184 196 212 223 208 209 235 191 200 195 204 177 162 164 133 150 165 183 173 200 189 139 198 227 235 204 231 251 223 192 185 210 202 218 208 190 196 203 223 233 239 243 234 232
246 249 252 253 250 250 248 241 231 198 195 215 206 232 215 234 256 238 205 177 185 154 163 158 120 180 178 212 184 180 172 219 215 233 239 232 239 221 225 207 199 198 186 198 190 176 190 183 201 232 234 238 229 233
244 251 249 247 246 247 242 240 229 186 202 215 225 246 249 186 252 256 277 264 189 162 157 186 177 212 213 212 186 198 182 215 235 214 231 234 236 211 203 208 205 165 151 152 148 162 173 176 188 233 285 242 234 223
241 242 239 240 240 240 239 224 174 195 201 216 216 210 243 271 271 239 180 177 182 180 198 196 211 214 150 208 200 191 204 229 223 223 239 228 229 213 186 214 181 158 160 154 159 175 173 152 155 192 237 225 214 218
228 220 226 230 232 236 185 188 207 213 221 219 215 215 206 227 242 251 250 234 188 203 223 244 278 201 213 195 223 225 228 281 220 226 234 233 218 201 196 192 162 168 200 178 158 154 161 173 199 225 216 199 165 181
223 209 221 230 216 157 201 214 191 239 229 215 210 231 235 241 237 245 253 228 209 204 207 217 232 202 211 212 239 255 225 189 207 211 220 225 209 194 188 159 156 166 190 184 182 180 182 198 209 187 186 177 206 177
236 235 229 228 212 201 204 211 197 227 224 233 209 236 234 235 240 245 248 243 223 222 228 222 226 230 230 232 235 253 207 204 197 203 229 236 200 155 190 193 210 177 169 176 180 168 184 218 215 202 204 194 175 180
237 236 244 229 212 201 223 193 209 225 219 218 225 214 238 240 238 239 242 234 227 224 227 225 238 242 235 244 219 221 217 178 204 215 226 218 166 161 167 210 177 171 181 187 199 209 211 225 169 190 199 186 178 172
212 209 158 166 212 208 222 199 212 208 202 228 210 225 244 245 245 240 242 234 231 226 221 231 236 244 250 237 230 201 208 187 170 172 159 131 142 153 209 202 182 202 195 207 203 206 213 181 172 168 181 174 161 153
196 166 172 174 207 214 245 155 190 207 236 223 189 234 241 242 240 161 234 227 230 223 227 236 244 241 241 236 207 217 196 190 203 212 193 189 189 150 174 186 198 192 192 222 205 207 204 175 175 158 154 154 163 161
143 198 204 208 195 232 161 195 207 219 223 231 244 250 254 251 200 223 239 232 231 213 217 225 218 227 225 226 223 224 209 197 219 212 165 157 167 184 193 195 193 212 202 150 165 192 176 171 167 162 157 159 172 162
214 209 208 203 201 200 198 196 205 222 222 197 216 240 226 202 234 234 235 247 225 224 225 217 213 215 223 229 228 229 182 177 184 199 195 185 205 172 163 216 211 215 169 181 184 182 171 164 169 161 161 171 173 160
218 212 201 195 215 168 192 201 203 216 230 225 230 237 174 216 234 244 234 239 226 212 208 201 206 216 224 228 232 223 214 195 205 227 231 195 200 214 224 227 228 232 187 202 178 175 170 178 172 164 171 182 174 154
203 233 217 170 147 118 235 265 222 185 196 216 210 179 194 223 236 245 256 228 233 306 290 232 218 218 223 224 228 214 140 169 193 219 220 182 198 205 206 210 216 219 162 182 179 177 177 177 170 167 166 167 168 163
202 191 206 212 188 206 240 229 218 212 221 213 159 193 207 216 232 236 244 17 306 318 297 300 324 285 207 176 138 126 101 105 103 94 85 73 83 218 196 159 154 155 152 170 174 172 172 167 161 159 161 159 155 150
196 198 125 191 173 214 216 222 227 205 214 187 209 227 236 235 270 270 309 271 14 2 292 260 4 65 78 76 80 101 141 156 156 169 193 193 183 221 181 160 141 136 142 155 171 157 153 152 152 152 144 139 129 124
229 170 190 196 202 234 221 200 234 329 269 293 301 287 268 256 237 206 231 238 189 227 252 232 163 172 167 155 141 143 180 191 200 167 174 198 207 153 161 165 161 157 149 142 136 144 147 132 123 118 121 123 124 129
147 157 201 231 247 251 156 112 267 251 240 239 221 258 276 315 300 220 215 202 190 165 179 196 161 152 159 156 165 168 198 210 207 212 218 140 144 163 160 153 146 141 140 139 140 132 129 127 133 131 130 131 140 133
170 190 201 219 245 190 134 218 211 233 232 236 222 220 259 248 254 229 185 155 175 203 217 198 179 198 213 82 154 117 65 146 175 182 159 146 139 136 135 134 136 137 132 123 126 130 137 135 136 133 132 130 132 132
107 138 153 146 166 225 215 216 226 285 248 256 251 218 252 239 247 277 98 243 229 233 211 214 202 145 167 207 216 141 33 19 200 162 160 157 148 142 131 133 125 122 124 125 131 136 135 131 129 128 126 128 130 131